Location: Grasslands National Park East Block
(49.0708°N, 106.5295°W)
Time: 01:52:25
(UTC-06:00)

Vanguard 1 Rocket - Pass Details

Date: 25 September 2019
Orbit: 650 x 4226 km, 34.3° (Epoch: 17 October)

Event Time Altitude Azimuth Distance (km) Brightness Sun altitude
Rises 19:40:07 0° 254° (WSW) 8,360 13.7 -7.7°
Reaches altitude 10° 19:46:37 10° 250° (WSW) 7,081 13.0 -8.8°
Maximum altitude 20:06:40 46° 186° (S) 3,380 10.2 -12.0°
Enters shadow 20:16:54 15° 121° (ESE) 3,938 10.0 -13.7°
Drops below altitude 10° 20:18:00 10° 118° (ESE) 4,161 - -13.8°
Sets 20:20:43 0° 112° (ESE) 4,794 - -14.3°
